Mason City, IA

1:18 AM CST on January 17, 2018 (GMT -0600)
Mason City Municipal

Weather History for KMCW - November, 2011

Change the Weather History Date:

Friday, November 25, 2011

  Actual Average Record
Temperature  
Mean Temperature 47 °F 28 °F  
Max Temperature 51 °F 37 °F 68 °F (1960)
Min Temperature 43 °F 19 °F -13 °F (1977)
Degree Days  
Heating Degree Days 18 37  
Month to date heating degree days 653 748  
Since 1 July heating degree days 1291 1486  
Cooling Degree Days 0 0  
Month to date cooling degree days 0 0  
Year to date cooling degree days 789 616  
Moisture  
Dew Point 44 °F    
Average Humidity 81    
Maximum Humidity 96    
Minimum Humidity 66    
Precipitation  
Precipitation 0.08 in 0.05 in 0.51 in (1942)
Month to date precipitation 0.28 1.61  
Year to date precipitation 21.07 33.69  
Snow  
Snow 0.00 in 0.20 in 10.00 in (1930)
Month to date snowfall 0.0 3.1  
Since 1 July snowfall 0.0 3.5  
Since 1 September snowfall 0.0 3.5  
Snow Depth 0.00 in    
Sea Level Pressure  
Sea Level Pressure 29.72 in    
Wind  
Wind Speed 14 mph (South)    
Max Wind Speed 22 mph    
Max Gust Speed 26 mph    
Visibility 6 miles    
Events Rain    
T = Trace of Precipitation, MM = Missing Value Source: NWS Daily Summary

Daily Weather History Graph

Daily Weather History Graph

Search for Another Location

Airport or City:

Trip Planner

Search our weather history database for the weather conditions in past years. The results will help you decide how hot, cold, wet, or windy it might be!

Date:

Astronomy

Nov. 25, 2011 Rise Set
Actual Time 7:18 AM CST 4:42 PM CST
Civil Twilight 6:46 AM CST 5:13 PM CST
Nautical Twilight 6:11 AM CST 5:48 PM CST
Astronomical Twilight 5:37 AM CST 6:22 PM CST
Moon 7:48 AM CST (11/25) 5:08 PM CST (11/25)
Length of Visible Light 10h 26m
Length of Day
9h 23m
New Moon, 0% of the Moon is Illuminated
Nov 25
New Moon
Dec 2
First Quarter
Dec 10
Full
Dec 17
Last Quarter
Dec 24
New

Hourly Weather History & Observations

Time (CST) Temp. Windchill Dew Point Humidity Pressure Visibility Wind Dir Wind Speed Gust Speed Precip Events Conditions
12:53 AM 46.9 °F - 39.0 °F 74% 29.77 in 10.0 mi SSW 15.0 mph - N/A   Clear
1:53 AM 48.2 °F - 39.2 °F 71% 29.78 in 10.0 mi SSW 13.8 mph - N/A   Clear
2:53 AM 46.0 °F 39.9 °F 39.9 °F 79% 29.77 in 10.0 mi SSW 13.8 mph - N/A   Clear
3:53 AM 46.4 °F 39.8 °F 39.2 °F 76% 29.76 in 10.0 mi SSW 16.1 mph - N/A   Clear
4:53 AM 46.9 °F - 42.1 °F 83% 29.75 in 10.0 mi SSW 16.1 mph - N/A   Clear
5:53 AM 45.0 °F 37.9 °F 41.0 °F 86% 29.74 in 8.0 mi SSW 16.1 mph - N/A   Clear
6:53 AM 44.1 °F 38.6 °F 41.0 °F 89% 29.75 in 7.0 mi South 10.4 mph - N/A   Clear
7:53 AM 43.0 °F 36.8 °F 41.0 °F 93% 29.74 in 5.0 mi South 11.5 mph - N/A   Clear
8:53 AM 45.0 °F 38.9 °F 42.1 °F 90% 29.75 in 5.0 mi South 12.7 mph - N/A   Mostly Cloudy
9:13 AM 46.4 °F 41.1 °F 42.8 °F 87% 29.76 in 5.0 mi SSW 11.5 mph - N/A   Overcast
9:53 AM 48.0 °F - 44.1 °F 86% 29.76 in 5.0 mi SSW 15.0 mph 24.2 mph N/A   Overcast
10:53 AM 48.9 °F - 44.1 °F 83% 29.76 in 5.0 mi SSW 19.6 mph - N/A   Haze
11:00 AM 48.2 °F - 44.6 °F 87% 29.76 in 5.0 mi SSW 16.1 mph - N/A   Haze
11:53 AM 50.0 °F - 44.1 °F 80% 29.73 in 6.0 mi SSW 16.1 mph 23.0 mph N/A   Haze
12:53 PM 50.0 °F - 44.1 °F 80% 29.72 in 6.0 mi SSW 19.6 mph 25.3 mph N/A   Haze
1:46 PM 51.8 °F - 44.6 °F 76% 29.71 in 6.0 mi SSW 16.1 mph 23.0 mph N/A   Haze
1:53 PM 51.1 °F - 45.0 °F 80% 29.70 in 6.0 mi South 12.7 mph 23.0 mph N/A   Haze
2:53 PM 51.1 °F - 45.0 °F 80% 29.66 in 6.0 mi South 15.0 mph 23.0 mph N/A   Haze
3:53 PM 51.1 °F - 45.0 °F 80% 29.70 in 5.0 mi South 13.8 mph - N/A   Haze
4:53 PM 50.0 °F - 45.0 °F 83% 29.70 in 6.0 mi South 12.7 mph - N/A   Haze
5:53 PM 50.0 °F - 45.0 °F 83% 29.71 in 6.0 mi South 15.0 mph 21.9 mph N/A   Haze
6:53 PM 48.9 °F - 45.0 °F 86% 29.71 in 5.0 mi South 17.3 mph - N/A   Overcast
7:53 PM 48.9 °F - 45.0 °F 86% 29.71 in 5.0 mi South 13.8 mph - N/A   Overcast
8:53 PM 48.9 °F - 45.0 °F 86% 29.71 in 5.0 mi South 11.5 mph - N/A   Overcast
9:13 PM 48.2 °F - 44.6 °F 87% 29.71 in 5.0 mi SSE 9.2 mph - N/A   Overcast
9:53 PM 48.2 °F - 44.6 °F 87% 29.71 in 5.0 mi SSE 8.1 mph - N/A Rain Light Rain
10:17 PM 48.2 °F - 46.4 °F 93% 29.71 in 4.0 mi South 8.1 mph - 0.01 in Rain Light Rain
10:39 PM 48.2 °F - 46.4 °F 93% 29.70 in 2.5 mi South 8.1 mph - 0.03 in Rain Light Rain
10:53 PM 48.0 °F - 46.9 °F 96% 29.69 in 2.5 mi South 8.1 mph - 0.04 in Rain Light Rain
11:01 PM 48.2 °F - 46.4 °F 93% 29.69 in 3.0 mi South 9.2 mph - 0.01 in Rain Light Rain
11:25 PM 48.2 °F - 46.4 °F 93% 29.70 in 2.5 mi South 9.2 mph - 0.02 in Rain Light Rain
11:34 PM 48.2 °F - 46.4 °F 93% 29.70 in 3.0 mi South 9.2 mph - 0.02 in Rain Light Rain
11:44 PM 48.2 °F - 46.4 °F 93% 29.69 in 2.5 mi South 10.4 mph - 0.03 in Rain Light Rain